Flag for Canada Weather past 2 weeks in Inuvik, Northwest Territories, Canada

Now
59 °F

Scattered clouds.


Feels Like: 59 °F
Forecast: 56 / 73 °F
Wind: 5 mph from West

Location: Inuvik

Current Time: Jul 2, 2015 at 3:16:37 AM

Latest Report: Jul 2, 2015 at 3:00 AM


Visibility: 10 mi

Pressure: 29.88 "Hg

Humidity: 94%

Dew point: 57 °F

Location of InuvikLocation

Historic Weather in Inuvik — Graph

°F

Inuvik temperature yesterday

Maximum temperature yesterday: 77 °F (at 5:00 PM)
Minimum temperature yesterday: 63 °F (at 5:00 AM)
Average temperature yesterday: 70 °F

Past Weeks' High & Low Weather Summary

 TemperatureHumidityPressure
High81 °F (Jun 22, 1:00 PM)100% (Jun 28, 4:00 AM)30.19 "Hg (Jun 28, 4:00 AM)
Low39 °F (Jun 18, 4:00 AM)27% (Jun 21, 10:00 PM)29.57 "Hg (Jun 25, 8:00 PM)
Average61 °F62%29.86 "Hg
* Reported Jun 17 2:00 AM — Jul 2 2:00 AM, Inuvik, Weather by CustomWeather, © 2015

Note: Actual official high and low records may vary slightly from our data, if they occured in-between our weather recording intervals... More about our weather records

Advertising

Inuvik weather history for previous 24 hours

 ConditionsComfort  
Time TempWeatherWind HumidityBarometerVisibility
2:00 AM
Thu, Jul 2
61 °FScattered clouds.6 mph88%29.87 "Hg10 mi
1:00 AM63 °FScattered clouds.7 mph83%29.88 "Hg10 mi
12:00 AM68 °FPassing clouds.5 mph56%29.87 "Hg10 mi
11:00 PM
Wed, Jul 1
70 °FPassing clouds.6 mph53%29.87 "Hg10 mi
10:00 PM72 °FPassing clouds.8 mph53%29.87 "Hg8 mi
9:00 PM70 °FScattered showers. Scattered clouds.13 mph43%29.86 "Hg8 mi
8:48 PM72 °FScattered showers. Scattered clouds.13 mph41%29.87 "Hg8 mi
8:00 PM75 °FScattered clouds.7 mph47%29.86 "Hg8 mi
7:00 PM77 °FPassing clouds.9 mph42%29.85 "Hg15 mi
6:00 PM77 °FPassing clouds.9 mph39%29.85 "Hg10 mi
5:00 PM77 °FPassing clouds.6 mph42%29.85 "Hg10 mi
4:00 PM75 °FPassing clouds.8 mph47%29.85 "Hg10 mi
3:00 PM75 °FPassing clouds.7 mph41%29.86 "Hg10 mi
2:00 PM75 °FPassing clouds.6 mph44%29.86 "Hg10 mi
1:00 PM75 °FPassing clouds.5 mph41%29.86 "Hg10 mi
12:00 PM73 °FPassing clouds.5 mph41%29.86 "Hg12 mi
11:00 AM70 °FPassing clouds.3 mph57%29.86 "Hg12 mi
10:00 AM68 °FPassing clouds.No wind64%29.87 "Hg15 mi
9:00 AM64 °FPassing clouds.3 mph68%29.87 "Hg15 mi
8:00 AM63 °FPassing clouds.2 mph73%29.87 "Hg15 mi
7:00 AM63 °FScattered clouds.6 mph73%29.88 "Hg15 mi
6:00 AM63 °FScattered clouds.7 mph73%29.88 "Hg15 mi
5:00 AM63 °FScattered clouds.5 mph77%29.88 "Hg15 mi
4:00 AM64 °FSunny.6 mph73%29.88 "Hg15 mi
3:00 AM64 °FSunny.7 mph68%29.89 "Hg15 mi
Weather by CustomWeather, © 2015

See weather overviewHow to use our weather pages